Cairns, Australia

5:12 AM AEST on March 28, 2017 (GMT +1000)
Cairns International

Weather History for YBCS - October, 2011

Change the Weather History Date:

Wednesday, October 12, 2011

  Actual Average Record
Temperature  
Mean Temperature 78 °F -  
Max Temperature 87 °F 86 °F 87 °F (2005)
Min Temperature 70 °F 70 °F 62 °F (2013)
Cooling Degree Days 14    
Growing Degree Days 28 (Base 50)    
Moisture  
Dew Point 72 °F    
Average Humidity 77    
Maximum Humidity 95    
Minimum Humidity 46    
Precipitation  
Precipitation 0.00 in 0.09 in - ()
Sea Level Pressure  
Sea Level Pressure 29.80 in    
Wind  
Wind Speed 5 mph ()    
Max Wind Speed 12 mph    
Max Gust Speed -    
Visibility 6.9 miles    
Events      
Averages and records for this station are not official NWS values.
T = Trace of Precipitation, MM = Missing Value Source: Averaged Metar Reports

Daily Weather History Graph

Daily Weather History Graph

Search for Another Location

Airport or City:

Trip Planner

Search our weather history database for the weather conditions in past years. The results will help you decide how hot, cold, wet, or windy it might be!

Date:

Astronomy

Oct. 12, 2011 Rise Set
Actual Time 5:51 AM AEST 6:16 PM AEST
Civil Twilight 5:29 AM AEST 6:37 PM AEST
Nautical Twilight 5:04 AM AEST 7:03 PM AEST
Astronomical Twilight 4:38 AM AEST 7:29 PM AEST
Moon 6:23 PM AEST (10/12) 5:32 AM AEST (10/12)
Length of Visible Light 13h 08m
Length of Day
12h 24m
Full, 100% of the Moon is Illuminated
Oct 12
Full
Oct 12
Full
Oct 20
Last Quarter
Oct 27
New
Nov 3
First Quarter

Hourly Weather History & Observations

Time (AEST) Temp. Heat Index Dew Point Humidity Pressure Visibility Wind Dir Wind Speed Gust Speed Precip Events Conditions
12:00 AM 78 °F - 73 °F 82% 29.82 in 9 mi NW 4.6 mph - -   Haze
12:00 AM 77.0 °F - 73.4 °F 89% 29.80 in 6.2 mi NW 4.6 mph - N/A   Mostly Cloudy
12:30 AM 77.0 °F - 73.4 °F 89% 29.80 in 6.2 mi NW 4.6 mph - N/A   Mostly Cloudy
1:00 AM 77 °F - 72 °F 81% 29.82 in - WNW 4.6 mph - -  
1:00 AM 77.0 °F - 71.6 °F 83% 29.80 in 6.2 mi WNW 4.6 mph - N/A   Mostly Cloudy
1:30 AM 77.0 °F - 71.6 °F 83% 29.80 in 6.2 mi West 6.9 mph - N/A   Mostly Cloudy
2:00 AM 77.0 °F - 73.4 °F 89% 29.80 in 6.2 mi West 5.8 mph - N/A   Mostly Cloudy
2:30 AM 77.0 °F - 73.4 °F 89% 29.77 in 6.2 mi West 4.6 mph - N/A   Mostly Cloudy
2:40 AM 77.0 °F - 73.4 °F 89% 29.77 in 6.2 mi WNW 4.6 mph - N/A   Scattered Clouds
3:00 AM 75 °F - 72 °F 89% 29.78 in 9 mi WNW 4.6 mph - -   Haze
3:00 AM 75.2 °F - 71.6 °F 89% 29.77 in 6.2 mi WNW 4.6 mph - N/A   Partly Cloudy
3:30 AM 73.4 °F - 69.8 °F 88% 29.77 in 6.2 mi NW 5.8 mph - N/A   Partly Cloudy
4:00 AM 73 °F - 70 °F 88% 29.79 in - ENE 1.2 mph - -  
4:00 AM 73.4 °F - 69.8 °F 88% 29.77 in 6.2 mi ENE 1.2 mph - N/A   Partly Cloudy
4:30 AM 73.4 °F - 69.8 °F 88% 29.77 in 6.2 mi Calm Calm - N/A   Partly Cloudy
5:00 AM 73.4 °F - 71.6 °F 94% 29.80 in 6.2 mi Calm Calm - N/A   Partly Cloudy
5:30 AM 71.6 °F - 69.8 °F 94% 29.80 in 6.2 mi Calm Calm - N/A   Partly Cloudy
6:00 AM 71 °F - 70 °F 95% 29.82 in 9 mi Calm Calm - -   Haze
6:00 AM 71.6 °F - 69.8 °F 94% 29.80 in 6.2 mi Calm Calm - N/A   Partly Cloudy
6:30 AM 73.4 °F - 69.8 °F 88% 29.83 in 6.2 mi Calm Calm - N/A   Partly Cloudy
7:00 AM 75 °F - 71 °F 84% 29.86 in - West 4.6 mph - -  
7:00 AM 75.2 °F - 71.6 °F 89% 29.83 in 6.2 mi West 4.6 mph - N/A   Partly Cloudy
7:30 AM 78.8 °F - 73.4 °F 83% 29.86 in - West 4.6 mph - N/A   Clear
8:00 AM 82.4 °F 88.2 °F 73.4 °F 74% 29.86 in - SE 3.5 mph - N/A   Clear
8:30 AM 84.2 °F 86.6 °F 66.2 °F 55% 29.86 in - West 1.2 mph - N/A   Clear
9:00 AM 87 °F - 69 °F 46% 29.87 in 12 mi NE 5.8 mph - -   Haze
9:00 AM 86.0 °F 90.4 °F 69.8 °F 58% 29.86 in - NE 5.8 mph - N/A   Clear
9:30 AM 86.0 °F 88.2 °F 66.2 °F 51% 29.86 in - NNE 8.1 mph - N/A   Clear
10:00 AM 86 °F - 70 °F 50% 29.86 in - NNE 8.1 mph - -  
10:00 AM 86.0 °F 90.4 °F 69.8 °F 58% 29.83 in - NNE 8.1 mph - N/A   Clear
10:30 AM 86.0 °F 91.8 °F 71.6 °F 62% 29.83 in - NNE 9.2 mph - N/A   Clear
11:00 AM 87.8 °F 93.8 °F 71.6 °F 58% 29.83 in - NNE 9.2 mph - N/A   Clear
11:30 AM 86.0 °F 91.8 °F 71.6 °F 62% 29.83 in - NNE 10.4 mph - N/A   Clear
12:00 PM 86 °F - 74 °F 61% 29.81 in 6 mi NNE 10.4 mph - -   Haze
12:00 PM 86.0 °F 95.1 °F 75.2 °F 70% 29.80 in 5.6 mi NNE 10.4 mph - N/A   Partly Cloudy
12:30 PM 86.0 °F 93.4 °F 73.4 °F 66% 29.80 in 5.6 mi NNE 10.4 mph - N/A   Partly Cloudy
1:00 PM 86 °F - 73 °F 56% 29.79 in - North 10.4 mph - -  
1:00 PM 86.0 °F 93.4 °F 73.4 °F 66% 29.77 in 5.6 mi North 10.4 mph - N/A   Partly Cloudy
1:30 PM 86.0 °F 91.8 °F 71.6 °F 62% 29.77 in 5.6 mi NNE 10.4 mph - N/A   Partly Cloudy
2:00 PM 86.0 °F 93.4 °F 73.4 °F 66% 29.74 in - NNE 10.4 mph - N/A   Clear
2:30 PM 86.0 °F 93.4 °F 73.4 °F 66% 29.74 in 6.2 mi NNE 10.4 mph - N/A   Partly Cloudy
3:00 PM 85 °F - 73 °F 60% 29.75 in 9 mi North 11.5 mph - -   Haze
3:00 PM 84.2 °F 90.9 °F 73.4 °F 70% 29.74 in - North 11.5 mph - N/A   Clear
3:30 PM 84.2 °F 90.9 °F 73.4 °F 70% 29.74 in - NNE 10.4 mph - N/A   Clear
4:00 PM 84 °F - 74 °F 65% 29.75 in - North 9.2 mph - -  
4:00 PM 84.2 °F 90.9 °F 73.4 °F 70% 29.74 in - North 9.2 mph - N/A   Clear
4:30 PM 82.4 °F 88.2 °F 73.4 °F 74% 29.74 in - North 9.2 mph - N/A   Clear
5:00 PM 82.4 °F 88.2 °F 73.4 °F 74% 29.74 in - North 8.1 mph - N/A   Clear
5:30 PM 80.6 °F 85.4 °F 73.4 °F 79% 29.77 in - North 6.9 mph - N/A   Clear
6:00 PM 80 °F - 71 °F 69% 29.78 in - North 6.9 mph - -  
6:00 PM 80.6 °F 84.6 °F 71.6 °F 74% 29.77 in - North 6.9 mph - N/A   Clear
6:30 PM 78.8 °F - 71.6 °F 78% 29.77 in - NNW 3.5 mph - N/A   Clear
7:00 PM 77 °F - 71 °F 77% 29.81 in - Calm Calm - -  
7:00 PM 77.0 °F - 71.6 °F 83% 29.80 in - Calm Calm - N/A   Clear
7:30 PM 77.0 °F - 71.6 °F 83% 29.80 in - Calm Calm - N/A   Clear
8:00 PM 75.2 °F - 71.6 °F 89% 29.80 in - Calm Calm - N/A   Clear
8:30 PM 75.2 °F - 71.6 °F 89% 29.83 in - Calm Calm - N/A   Clear
9:00 PM 75 °F - 71 °F 82% 29.84 in 12 mi Calm Calm - -   Haze
9:00 PM 75.2 °F - 69.8 °F 83% 29.83 in - Calm Calm - N/A   Clear
9:30 PM 73.4 °F - 71.6 °F 94% 29.83 in - Calm Calm - N/A   Clear
10:00 PM 73 °F - 71 °F 89% 29.86 in - Calm Calm - -  
10:00 PM 73.4 °F - 69.8 °F 88% 29.86 in - Calm Calm - N/A   Clear
10:30 PM 73.4 °F - 69.8 °F 88% 29.86 in - West 4.6 mph - N/A   Clear
11:00 PM 71.6 °F - 69.8 °F 94% 29.86 in - West 4.6 mph - N/A   Clear
11:30 PM 71.6 °F - 69.8 °F 94% 29.86 in - West 2.3 mph - N/A   Clear